TimeCST,TemperatureF,Dew PointF,Humidity,Sea Level PressureIn,VisibilityMPH,Wind Direction,Wind SpeedMPH,Gust SpeedMPH,PrecipitationIn,Events,Conditions,WindDirDegrees,DateUTC
12:54 AM,30.0,27.0,88,30.47,7.0,Calm,Calm,-,N/A,,Clear,0,2012-11-17 06:54:00
1:54 AM,28.0,25.0,88,30.47,5.0,Calm,Calm,-,N/A,,Clear,0,2012-11-17 07:54:00
2:54 AM,27.0,24.1,89,30.48,6.0,Calm,Calm,-,N/A,,Clear,0,2012-11-17 08:54:00
3:54 AM,28.0,25.0,88,30.48,5.0,Calm,Calm,-,N/A,,Clear,0,2012-11-17 09:54:00
4:54 AM,27.0,25.0,92,30.50,5.0,Calm,Calm,-,N/A,,Clear,0,2012-11-17 10:54:00
5:54 AM,27.0,24.1,89,30.49,10.0,Calm,Calm,-,N/A,,Clear,0,2012-11-17 11:54:00
6:54 AM,25.0,21.9,88,30.51,5.0,Calm,Calm,-,N/A,,Clear,0,2012-11-17 12:54:00
7:54 AM,30.0,27.0,88,30.52,8.0,Calm,Calm,-,N/A,,Clear,0,2012-11-17 13:54:00
8:54 AM,37.0,32.0,82,30.53,6.0,Calm,Calm,-,N/A,,Haze,0,2012-11-17 14:54:00
9:54 AM,46.0,34.0,63,30.53,5.0,NE,4.6,-,N/A,,Haze,50,2012-11-17 15:54:00
10:54 AM,51.1,34.0,52,30.51,10.0,Calm,Calm,-,N/A,,Partly Cloudy,0,2012-11-17 16:54:00
11:54 AM,55.0,28.9,37,30.48,10.0,SE,4.6,-,N/A,,Partly Cloudy,130,2012-11-17 17:54:00
12:54 PM,57.0,28.0,33,30.45,10.0,ESE,6.9,-,N/A,,Clear,110,2012-11-17 18:54:00
1:54 PM,57.9,24.1,27,30.43,10.0,Variable,6.9,-,N/A,,Mostly Cloudy,0,2012-11-17 19:54:00
2:54 PM,57.2,21.2,25,30.41,10.0,ESE,6.9,-,N/A,,Scattered Clouds,110,2012-11-17 20:54:00
3:54 PM,55.9,28.0,34,30.42,10.0,East,8.1,-,N/A,,Scattered Clouds,100,2012-11-17 21:54:00
4:54 PM,52.0,28.9,41,30.41,10.0,ESE,3.5,-,N/A,,Scattered Clouds,110,2012-11-17 22:54:00
5:54 PM,48.0,28.9,48,30.41,10.0,ESE,4.6,-,N/A,,Clear,110,2012-11-17 23:54:00
6:54 PM,39.0,30.0,70,30.42,10.0,Calm,Calm,-,N/A,,Clear,0,2012-11-18 00:54:00
7:54 PM,39.0,30.9,73,30.43,10.0,Calm,Calm,-,N/A,,Clear,0,2012-11-18 01:54:00
8:54 PM,36.0,30.0,79,30.43,9.0,Calm,Calm,-,N/A,,Clear,0,2012-11-18 02:54:00
9:54 PM,37.0,30.9,79,30.43,9.0,Calm,Calm,-,N/A,,Clear,0,2012-11-18 03:54:00
10:54 PM,30.9,28.0,89,30.42,9.0,ENE,4.6,-,N/A,,Clear,70,2012-11-18 04:54:00
11:54 PM,33.1,28.9,85,30.41,7.0,Calm,Calm,-,N/A,,Clear,0,2012-11-18 05:54:00